Location: Bretagne
(43.8474°N, 0.4650°W)
Time: 12:18:37
(UTC+00:00)

Radarsat Rocket - Pass Details

Date: 21 April 2026
Orbit: 933 x 1491 km, 100.5° (Epoch: 12 May)

Event Time Altitude Azimuth Distance (km) Brightness Sun altitude
Rises 21:03:17 0° 228° (SW) 4,556 7.6 -21.1°
Reaches altitude 10° 21:08:56 10° 259° (WSW) 3,630 7.4 -21.8°
Maximum altitude 21:11:36 12° 277° (W) 3,511 7.6 -22.1°
Drops below altitude 10° 21:14:17 10° 296° (WNW) 3,639 7.9 -22.5°
Sets 21:20:02 0° 326° (NW) 4,583 8.9 -23.2°
